Cloud_Cover
100 100 100 100 100 100 95 100 100 100 100 100 100 100 100 100 100 100 100 100 100 100
100 100 100 100 100 100 72 99 100 100 100 100 100 100 100 100 100 100 100 100 100 100
100 100 100 100 100 100 100 96 100 100 100 100 100 100 100 100 100 100 100 100 100 100
100 100 100 100 100 100 100 100 100 100 100 100 100 100 100 100 100 100 100 100 100 100
100 100 100 100 100 100 100 100 100 100 100 100 100 100 100 100 100 100 100 100 100 100
100 100 100 100 100 100 100 100 100 100 100 100 100 100 100 100 100 100 100 100 100 100
100 100 100 100 100 100 100 100 100 100 100 100 100 100 100 100 100 100 100 100 100 100
89 100 100 100 100 100 100 100 100 100 100 100 100 100 100 100 100 100 100 100 100 100
6 40 100 100 100 100 100 100 100 100 100 100 100 100 100 100 100 100 100 100 100 100
49 6 22 100 100 100 100 100 100 100 100 100 100 100 100 100 100 100 100 100 100 100
100 52 39 58 100 100 100 100 100 100 100 100 100 100 100 100 100 100 100 100 100 100
100 100 60 100 100 100 100 100 100 100 100 100 100 100 100 100 100 100 100 100 100 100
15 100 97 95 100 100 100 100 100 100 100 100 100 100 100 100 100 100 100 100 100 100
18 10 34 74 100 100 100 100 100 100 100 100 100 100 100 100 100 100 100 100 100 100